Location: Huntsville
(41.2590°N, 111.7678°W)
Time: 04:27:30
(UTC+00:00)

N. Korean satellite - Pass Details

Date: 03 December 2021
Orbit: 447 x 491 km, 97.3° (Epoch: 25 January)

Event Time Altitude Azimuth Distance (km) Brightness Sun altitude
Rises 11:36:30 0° 36° (NE) 2,460 10.6 -33.0°
Reaches altitude 10° 11:40:01 10° 76° (ENE) 1,576 9.9 -32.3°
Maximum altitude 11:40:55 11° 91° (E) 1,524 9.9 -32.1°
Drops below altitude 10° 11:41:49 10° 107° (ESE) 1,572 10.0 -32.0°
Sets 11:45:16 0° 146° (SE) 2,436 10.6 -31.3°
